sat.trackr.live / text

‹ back to catalog

ION SCV-015

NORAD 58469 · 2023-185H

PAYLOAD ACTIVE UNKNOWN

§ Identity

Operator
Country
IT
Launch date
2023-12-01
Launch site
AFWTR
Launch vehicle
Mass (kg)
RCS (m²)

External: N2YO · Heavens-Above · Gunter

§ Orbital elements

Epoch: 2026-09-21T23:07:21.303264Z

Period
93.87 min
Inclination
97.5741°
Eccentricity
0.0010424
Mean motion
15.34100355 rev/d
Perigee alt
456.5 km
Apogee alt
470.7 km
Semi-major
6,841.7 km
B*
1.4943e-4
RAAN
356.1120°
Arg perigee
113.3717°
Mean anomaly
246.8623°
Rev number
15,591

§ Raw data

ION SCV-0151 58469U 23185H   26264.96344101  .00004855  00000+0  14943-3 0  99942 58469  97.5741 356.1120 0010424 113.3717 246.8623 15.34100355155918

JSON: /api/v1/satellites/58469 · /tle

For live sub-satellite position, see the globe view (requires WebGL).

§ Visibility from observer

Set your observer location to see the next 7 days of passes ≥ 10°. The values pass through the URL so the page stays shareable.

No JS? Fill the form by hand. The geolocation button needs JavaScript.

§ Radio — SatNOGS DB

ModeDescriptionDownlinkUplink
FSK AX.100 Mode 5 Mode U - FSK1k2 AX.100 401.415 MHz
FM S-band telemetry 2.258 GHz

2 transmitters · refreshed weekly from db.satnogs.org